Location: ????????
(48.4751°N, 37.6926°E)
Time: 02:31:23
(UTC+00:00)

Cosmos 1025 Rocket - Pass Details

Date: 20 January 2021
Orbit: 594 x 618 km, 82.5° (Epoch: 24 February)

Event Time Altitude Azimuth Distance (km) Brightness Sun altitude
Rises 14:51:11 0° 207° (SSW) 2,847 7.3 -7.1°
Reaches altitude 10° 14:53:28 10° 215° (SW) 1,953 6.6 -7.4°
Maximum altitude 14:57:34 41° 285° (WNW) 895 4.4 -8.1°
Drops below altitude 10° 15:01:43 10° 357° (N) 1,981 5.5 -8.7°
Sets 15:04:04 0° 4° (N) 2,895 6.3 -9.1°
